This demonstration page uses our WeatherBlox Daily Observations layout. Learn more.

Left ArrowRight Arrow

Hourly Observations for November 10, 2019

Temp ( °F °C ) Dew Point ( °F °C ) Humidity (%) Winds ( mph kmh ) Pressure ( in mb ) Visibility ( mi km ) Precip ( " mm )
12:53 am 00:53 Clear 45 7.2 27 -2.8 49 49 N 9 15 29.94 1014 10 16 0.00 0.00
1:53 am 01:53 Clear 46 7.8 27 -2.8 47 47 N 5 7 29.93 1014 10 16 0.00 0.00
2:53 am 02:53 Clear 44 6.7 27 -2.8 51 51 N 10 17 29.93 1014 10 16 0.00 0.00
3:53 am 03:53 Clear 44 6.7 28 -2.2 53 53 N 10 17 29.95 1014 10 16 0.00 0.00
4:53 am 04:53 Clear 40 4.4 28 -2.2 63 63 NNW 8 13 29.98 1015 10 16 0.00 0.00
5:53 am 05:53 Clear 37 2.8 28 -2.2 70 70 NE 5 7 30.02 1017 10 16 0.00 0.00
6:53 am 06:53 Clear 36 2.2 30 -1.1 79 79 NE 10 17 30.07 1018 10 16 0.00 0.00
7:53 am 07:53 Sunny 36 2.2 31 -0.6 82 82 NE 9 15 30.09 1019 10 16 0.00 0.00
8:53 am 08:53 Sunny 38 3.3 31 -0.6 76 76 NE 14 22 30.10 1019 10 16 0.00 0.00
9:53 am 09:53 Sunny 40 4.4 31 -0.6 70 70 NE 14 22 30.10 1019 10 16 0.00 0.00
10:53 am 10:53 Sunny 43 6.1 32 0 65 65 NE 14 22 30.10 1019 10 16 0.00 0.00
11:53 am 11:53 Sunny 45 7.2 32 0 61 61 E 13 20 30.09 1019 10 16 0.00 0.00
12:53 pm 12:53 Sunny 48 8.9 32 0 54 54 NE 13 20 30.06 1018 10 16 0.00 0.00
1:53 pm 13:53 Sunny 47 8.3 31 -0.6 54 54 NE 14 22 30.05 1018 10 16 0.00 0.00
2:53 pm 14:53 Sunny 46 7.8 30 -1.1 54 54 NE 15 24 30.07 1018 10 16 0.00 0.00
3:53 pm 15:53 Sunny 45 7.2 30 -1.1 56 56 NE 17 28 30.06 1018 10 16 0.00 0.00
4:53 pm 16:53 Sunny 41 5 30 -1.1 65 65 NE 18 30 30.09 1019 10 16 0.00 0.00
5:53 pm 17:53 Clear 35 1.7 25 -3.9 67 67 NE 21 33 30.14 1021 10 16 0.00 0.00
6:50 pm 18:50 Mostly Cloudy 32 0 21 -6 64 64 NE 21 33 30.23 1024 10 16 0.00 0.00
6:53 pm 18:53 Mostly Cloudy 32 0 22 -5.6 66 66 NE 21 33 30.19 1023 10 16 0.00 0.00
7:53 pm 19:53 Cloudy 29 -1.7 23 -5 78 78 NNE 20 31 30.24 1024 10 16 0.00 0.00
8:10 pm 20:10 Cloudy 29 -1.7 22 -5.6 75 75 NE 22 35 30.30 1026 10 16 0.00 0.00
8:53 pm 20:53 Cloudy 28 -2.2 20 -6.7 72 72 NNE 24 39 30.27 1025 10 16 0.00 0.00
9:53 pm 21:53 Cloudy 27 -2.8 18 -7.8 69 69 NNE 22 35 30.33 1027 10 16 0.00 0.00
10:53 pm 22:53 Cloudy 25 -3.9 18 -7.8 75 75 NNE 15 24 30.35 1028 10 16 0.00 0.00
11:26 pm 23:26 Cloudy 25 -4 16 -9 69 69 NNE 26 43 30.46 1031 10 16 0.00 0.00
11:49 pm 23:49 Cloudy 23 -5 16 -9 74 74 NNE 24 39 30.47 1032 10 16 0.00 0.00
11:53 pm 23:53 Cloudy 23 -5 16 -8.9 74 74 NNE 21 33 30.40 1030 10 16 0.00 0.00

Powered by AerisWeather